Back to catalog

FENGYUN 1C DEB

AliveSSO
NORAD 31452·DEBRIS·🇨🇳 China

Launched May 10, 1999 from Taiyuan Satellite Launch Center

Loading…

Next Passes (next 24 hours)

TLE

FreshSource: Space-Track

Epoch: Sep 14, 2026, 04:20 UTC

1 31452U 99025BUQ 26257.18073786  .00000375  00000-0  21179-3 0  9990
2 31452  98.6832 241.5679 0041299  61.0244 299.5060 14.15522409  1004

Track FENGYUN 1C DEB in real time with AllMySat

Download on the App Store